Weather in Kulikovo

Russia / Republic of Mordovia     54°44′08″N   42°33′12″E
temp.,
°C
wind,
m/s
gust,
m/s
humid.,
%
clouds,
%
prec.,
mm/h
press.,
hPa
HPBL,
m
7 march, sun
sun700:00−14wsw339017 0.0 101424
03:00−15wsw349619 0.0 101351
06:00−16sw449637 0.0 101269
09:00−10ssw7149068 0.0 1008450
12:00−6ssw101590100 0.1 1004853
15:00−5sw111793100 1.5 9991240
18:00−4sw91594100 1.7 996976
21:00−3ssw81496100 3.2 992845
8 march, mon
mon800:00−5w91590100 0.9 991580
03:00−10wsw4119590 0.9 995276
06:00−8w8148896 0.2 997591
09:00−9wsw5109385 0.3 999366
12:00−6sw699090 0.1 999788
15:00−4wsw7108395 0.7 9991274
18:00−8w4984100 0.5 1001222
21:00−12wnw489269 0.5 1004133
9 march, tue
tue900:00−13wnw459610 0.0 100682
03:00−16nw349730 0.0 100866
06:00−17nw349757 0.0 101049
09:00−15nw359572 0.0 1012222
12:00−11nw348697 0.0 1013605
15:00−10nw458699 0.1 1014746
18:00−13nnw3694100 0.1 1015122
21:00−17nw469799 0.1 101799
10 march, wed
wed1000:00−20nw349970 0.0 101864
03:00−23nnw449970 0.0 102076
06:00−25nnw469986 0.0 102296
09:00−22nnw479577 0.0 1023266
12:00−18nnw468876 0.0 1025593
15:00−17nnw468488 0.0 1025653
18:00−20nnw339164 0.0 102521
21:00−23nw339332 0.0 102721
11 march, thu
thu1100:00−24wnw33920 0.0 102822
03:00−24w34890 0.0 102840
06:00−24w44940 0.0 102961
09:00−20w46920 0.0 1029214
12:00−14w46870 0.0 1029320
15:00−11wsw46830 0.0 1028371
18:00−16sw34880 0.0 102834
21:00−17ssw379413 0.0 1028130